Weather WX

World > North America > United States > Ohio

Maximo, Ohio Regional Weather

Lat: 40.88N, Lon: 81.17W
Wx Zone: OHZ032
Feedback

Maximo, OH Regional Weather

Expires:201906251400;;054146
ASUS41 KCLE 251312
RWRCLE
OHIO REGIONAL WEATHER ROUNDUP
NATIONAL WEATHER SERVICE WILMINGTON, OH
900 AM EDT TUE JUN 25 2019

NOTE: "FAIR" INDICATES FEW OR NO CLOUDS BELOW 12,000 FEET WITH NO
SIGNIFICANT WEATHER AND/OR OBSTRUCTIONS TO VISIBILITY.


OHZ009>014-019>023-028>033-038-089-251400-
   NORTHEAST OHIO
  
CITY           SKY/WX    TMP DP  RH WIND       PRES   REMARKS
CLE-HOPKINS    FAIR      72  63  73 SW10      29.89R                  
CLE-LAKEFRONT  FAIR      72  62  71 SW15G22   29.86R                  
CUY CO. ARPT   MOSUNNY   70  63  78 SW13      29.87R                  
LORAIN-ELYRIA  FAIR      70  57  63 W14G22    29.89R                  
ASHTABULA      FAIR      70  64  81 W13       29.87R                  
AKRON-CANTON   FAIR      71  62  73 W9        29.91R                  
WOOSTER        FAIR      70  63  78 W10       29.92R                  
MANSFIELD      FAIR      70  61  73 W10       29.93R                  
YOUNGSTOWN     PTSUNNY   68  62  81 SW12      29.89R                  
$$
 

SKY/WX - Weather  TMP - Temperature  DP - Dew Point  RH - Relative Humidity
WIND - Wind Direction/Speed PRES - Barometric Pressure VSB - Visibility
WCI - Wind Chill Index E13G22 Wind - East Wind 13 mph/Gusts of 22 mph